Year,Month,Day,Hour,Minute,Value (Times are PST for temperature in C)
2019,04,24,00,00,7.00
2019,04,24,00,01,7.00
2019,04,24,00,02,7.00
2019,04,24,00,03,7.00
2019,04,24,00,04,7.00
2019,04,24,00,05,6.90
2019,04,24,00,06,6.90
2019,04,24,00,07,6.90
2019,04,24,00,08,6.90
2019,04,24,00,09,6.90
2019,04,24,00,10,6.90
2019,04,24,00,11,6.90
2019,04,24,00,12,6.90
2019,04,24,00,13,6.90
2019,04,24,00,14,6.90
2019,04,24,00,15,6.80
2019,04,24,00,16,6.80
2019,04,24,00,17,6.80
2019,04,24,00,18,6.80
2019,04,24,00,19,6.80
2019,04,24,00,20,6.80
2019,04,24,00,21,6.80
2019,04,24,00,22,6.80
2019,04,24,00,23,6.80
2019,04,24,00,24,6.80
2019,04,24,00,25,6.80
2019,04,24,00,26,6.80
2019,04,24,00,27,6.70
2019,04,24,00,28,6.70
2019,04,24,00,29,6.70
2019,04,24,00,30,6.70
2019,04,24,00,31,6.70
2019,04,24,00,32,6.70
2019,04,24,00,33,6.60
2019,04,24,00,34,6.60
2019,04,24,00,35,6.60
2019,04,24,00,36,6.60
2019,04,24,00,37,6.60
2019,04,24,00,38,6.60
2019,04,24,00,39,6.60
2019,04,24,00,40,6.60
2019,04,24,00,41,6.50
2019,04,24,00,42,6.50
2019,04,24,00,43,6.50
2019,04,24,00,44,6.50
2019,04,24,00,45,6.50
2019,04,24,00,46,6.50
2019,04,24,00,47,6.40
2019,04,24,00,48,6.40
2019,04,24,00,49,6.40
2019,04,24,00,50,6.40
2019,04,24,00,51,6.40
2019,04,24,00,52,6.40
2019,04,24,00,53,6.40
2019,04,24,00,54,6.40
2019,04,24,00,55,6.40
2019,04,24,00,56,6.40
2019,04,24,00,57,6.40
2019,04,24,00,58,6.40
2019,04,24,00,59,6.40
2019,04,24,01,00,6.40
2019,04,24,01,01,6.40
2019,04,24,01,02,6.40
2019,04,24,01,03,6.40
2019,04,24,01,04,6.40
2019,04,24,01,05,6.40
2019,04,24,01,06,6.40
2019,04,24,01,07,6.40
2019,04,24,01,08,6.40
2019,04,24,01,09,6.40
2019,04,24,01,10,6.40
2019,04,24,01,11,6.40
2019,04,24,01,12,6.40
2019,04,24,01,13,6.40
2019,04,24,01,14,6.40
2019,04,24,01,15,6.40
2019,04,24,01,16,6.40
2019,04,24,01,17,6.40
2019,04,24,01,18,6.40
2019,04,24,01,19,6.40
2019,04,24,01,20,6.40
2019,04,24,01,21,6.40
2019,04,24,01,22,6.40
2019,04,24,01,23,6.40
2019,04,24,01,24,6.40
2019,04,24,01,25,6.30
2019,04,24,01,26,6.30
2019,04,24,01,27,6.30
2019,04,24,01,28,6.30
2019,04,24,01,29,6.30
2019,04,24,01,30,6.30
2019,04,24,01,31,6.30
2019,04,24,01,32,6.30
2019,04,24,01,33,6.30
2019,04,24,01,34,6.30
2019,04,24,01,35,6.30
2019,04,24,01,36,6.30
2019,04,24,01,37,6.20
2019,04,24,01,38,6.20
2019,04,24,01,39,6.20
2019,04,24,01,40,6.20
2019,04,24,01,41,6.20
2019,04,24,01,42,6.20
2019,04,24,01,43,6.20
2019,04,24,01,44,6.20
2019,04,24,01,45,6.20
2019,04,24,01,46,6.20
2019,04,24,01,47,6.20
2019,04,24,01,48,6.20
2019,04,24,01,49,6.20
2019,04,24,01,50,6.20
2019,04,24,01,51,6.20
2019,04,24,01,52,6.10
2019,04,24,01,53,6.10
2019,04,24,01,54,6.10
2019,04,24,01,55,6.10
2019,04,24,01,56,6.10
2019,04,24,01,57,6.10
2019,04,24,01,58,6.10
2019,04,24,01,59,6.10
2019,04,24,02,00,6.10
2019,04,24,02,01,6.10
2019,04,24,02,02,6.10
2019,04,24,02,03,6.10
2019,04,24,02,04,6.10
2019,04,24,02,05,6.10
2019,04,24,02,06,6.10
2019,04,24,02,07,6.10
2019,04,24,02,08,6.10
2019,04,24,02,09,6.10
2019,04,24,02,10,6.10
2019,04,24,02,11,6.10
2019,04,24,02,12,6.10
2019,04,24,02,13,6.10
2019,04,24,02,14,6.10
2019,04,24,02,15,6.10
2019,04,24,02,16,6.10
2019,04,24,02,17,6.10
2019,04,24,02,18,6.10
2019,04,24,02,19,6.10
2019,04,24,02,20,6.10
2019,04,24,02,21,6.10
2019,04,24,02,22,6.10
2019,04,24,02,23,6.10
2019,04,24,02,24,6.10
2019,04,24,02,25,6.10
2019,04,24,02,26,6.10
2019,04,24,02,27,6.10
2019,04,24,02,28,6.10
2019,04,24,02,29,6.10
2019,04,24,02,30,6.10
2019,04,24,02,31,6.00
2019,04,24,02,32,6.00
2019,04,24,02,33,6.00
2019,04,24,02,34,6.00
2019,04,24,02,35,6.00
2019,04,24,02,36,6.00
2019,04,24,02,37,6.00
2019,04,24,02,38,6.00
2019,04,24,02,39,6.00
2019,04,24,02,40,6.00
2019,04,24,02,41,6.00
2019,04,24,02,42,6.00
2019,04,24,02,43,6.00
2019,04,24,02,44,6.00
2019,04,24,02,45,6.00
2019,04,24,02,46,6.00
2019,04,24,02,47,6.00
2019,04,24,02,48,6.00
2019,04,24,02,49,6.00
2019,04,24,02,50,6.00
2019,04,24,02,51,6.00
2019,04,24,02,52,6.00
2019,04,24,02,53,6.00
2019,04,24,02,54,6.00
2019,04,24,02,55,6.00
2019,04,24,02,56,6.00
2019,04,24,02,57,6.00
2019,04,24,02,58,6.00
2019,04,24,02,59,6.00
2019,04,24,03,00,6.00
2019,04,24,03,01,6.00
2019,04,24,03,02,6.00
2019,04,24,03,03,6.00
2019,04,24,03,04,5.90
2019,04,24,03,05,5.90
2019,04,24,03,06,5.90
2019,04,24,03,07,5.90
2019,04,24,03,08,5.90
2019,04,24,03,09,5.90
2019,04,24,03,10,5.90
2019,04,24,03,11,5.90
2019,04,24,03,12,5.90
2019,04,24,03,13,5.90
2019,04,24,03,14,5.90
2019,04,24,03,15,5.90
2019,04,24,03,16,5.90
2019,04,24,03,17,5.90
2019,04,24,03,18,5.90
2019,04,24,03,19,5.90
2019,04,24,03,20,5.90
2019,04,24,03,21,5.90
2019,04,24,03,22,5.90
2019,04,24,03,23,5.90
2019,04,24,03,24,5.90
2019,04,24,03,25,5.90
2019,04,24,03,26,5.90
2019,04,24,03,27,5.80
2019,04,24,03,28,5.80
2019,04,24,03,29,5.80
2019,04,24,03,30,5.80
2019,04,24,03,31,5.80
2019,04,24,03,32,5.80
2019,04,24,03,33,5.80
2019,04,24,03,34,5.70
2019,04,24,03,35,5.70
2019,04,24,03,36,5.70
2019,04,24,03,37,5.70
2019,04,24,03,38,5.60
2019,04,24,03,39,5.60
2019,04,24,03,40,5.60
2019,04,24,03,41,5.50
2019,04,24,03,42,5.50
2019,04,24,03,43,5.50
2019,04,24,03,44,5.40
2019,04,24,03,45,5.40
2019,04,24,03,46,5.40
2019,04,24,03,47,5.40
2019,04,24,03,48,5.40
2019,04,24,03,49,5.40
2019,04,24,03,50,5.40
2019,04,24,03,51,5.40
2019,04,24,03,52,5.40
2019,04,24,03,53,5.40
2019,04,24,03,54,5.40
2019,04,24,03,55,5.40
2019,04,24,03,56,5.40
2019,04,24,03,57,5.40
2019,04,24,03,58,5.40
2019,04,24,03,59,5.40
2019,04,24,04,00,5.40
2019,04,24,04,01,5.40
2019,04,24,04,02,5.40
2019,04,24,04,03,5.50
2019,04,24,04,04,5.40
2019,04,24,04,05,5.50
2019,04,24,04,06,5.40
2019,04,24,04,07,5.40
2019,04,24,04,08,5.40
2019,04,24,04,09,5.40
2019,04,24,04,10,5.40
2019,04,24,04,11,5.40
2019,04,24,04,12,5.40
2019,04,24,04,13,5.40
2019,04,24,04,14,5.50
2019,04,24,04,15,5.50
2019,04,24,04,16,5.50
2019,04,24,04,17,5.50
2019,04,24,04,18,5.60
2019,04,24,04,19,5.60
2019,04,24,04,20,5.60
2019,04,24,04,21,5.60
2019,04,24,04,22,5.60
2019,04,24,04,23,5.60
2019,04,24,04,24,5.60
2019,04,24,04,25,5.60
2019,04,24,04,26,5.60
2019,04,24,04,27,5.60
2019,04,24,04,28,5.60
2019,04,24,04,29,5.60
2019,04,24,04,30,5.60
2019,04,24,04,31,5.60
2019,04,24,04,32,5.60
2019,04,24,04,33,5.60
2019,04,24,04,34,5.60
2019,04,24,04,35,5.60
2019,04,24,04,36,5.60
2019,04,24,04,37,5.60
2019,04,24,04,38,5.60
2019,04,24,04,39,5.60
2019,04,24,04,40,5.60
2019,04,24,04,41,5.60
2019,04,24,04,42,5.60
2019,04,24,04,43,5.60
2019,04,24,04,44,5.60
2019,04,24,04,45,5.60
2019,04,24,04,46,5.60
2019,04,24,04,47,5.60
2019,04,24,04,48,5.60
2019,04,24,04,49,5.60
2019,04,24,04,50,5.60
2019,04,24,04,51,5.60
2019,04,24,04,52,5.60
2019,04,24,04,53,5.50
2019,04,24,04,54,5.50
2019,04,24,04,55,5.50
2019,04,24,04,56,5.50
2019,04,24,04,57,5.50
2019,04,24,04,58,5.50
2019,04,24,04,59,5.50
2019,04,24,05,00,5.50
2019,04,24,05,01,5.50
2019,04,24,05,02,5.50
2019,04,24,05,03,5.40
2019,04,24,05,04,5.40
2019,04,24,05,05,5.40
2019,04,24,05,06,5.40
2019,04,24,05,07,5.40
2019,04,24,05,08,5.40
2019,04,24,05,09,5.40
2019,04,24,05,10,5.40
2019,04,24,05,11,5.40
2019,04,24,05,12,5.40
2019,04,24,05,13,5.40
2019,04,24,05,14,5.30
2019,04,24,05,15,5.30
2019,04,24,05,16,5.30
2019,04,24,05,17,5.30
2019,04,24,05,18,5.30
2019,04,24,05,19,5.20
2019,04,24,05,20,5.20
2019,04,24,05,21,5.20
2019,04,24,05,22,5.20
2019,04,24,05,23,5.20
2019,04,24,05,24,5.20
2019,04,24,05,25,5.20
2019,04,24,05,26,5.20
2019,04,24,05,27,5.20
2019,04,24,05,28,5.10
2019,04,24,05,29,5.10
2019,04,24,05,30,5.10
2019,04,24,05,31,5.10
2019,04,24,05,32,5.00
2019,04,24,05,33,5.00
2019,04,24,05,34,5.00
2019,04,24,05,35,5.00
2019,04,24,05,36,5.00
2019,04,24,05,37,4.90
2019,04,24,05,38,4.90
2019,04,24,05,39,4.90
2019,04,24,05,40,4.90
2019,04,24,05,41,4.90
2019,04,24,05,42,4.80
2019,04,24,05,43,4.80
2019,04,24,05,44,4.80
2019,04,24,05,45,4.80
2019,04,24,05,46,4.80
2019,04,24,05,47,4.70
2019,04,24,05,48,4.70
2019,04,24,05,49,4.70
2019,04,24,05,50,4.70
2019,04,24,05,51,4.70
2019,04,24,05,52,4.60
2019,04,24,05,53,4.60
2019,04,24,05,54,4.60
2019,04,24,05,55,4.60
2019,04,24,05,56,4.60
2019,04,24,05,57,4.60
2019,04,24,05,58,4.60
2019,04,24,05,59,4.60
2019,04,24,06,00,4.60
2019,04,24,06,01,4.50
2019,04,24,06,02,4.50
2019,04,24,06,03,4.50
2019,04,24,06,04,4.50
2019,04,24,06,05,4.50
2019,04,24,06,06,4.50
2019,04,24,06,07,4.50
2019,04,24,06,08,4.50
2019,04,24,06,09,4.40
2019,04,24,06,10,4.50
2019,04,24,06,11,4.40
2019,04,24,06,12,4.40
2019,04,24,06,13,4.40
2019,04,24,06,14,4.40
2019,04,24,06,15,4.40
2019,04,24,06,16,4.40
2019,04,24,06,17,4.50
2019,04,24,06,18,4.50
2019,04,24,06,19,4.50
2019,04,24,06,20,4.50
2019,04,24,06,21,4.50
2019,04,24,06,22,4.60
2019,04,24,06,23,4.60
2019,04,24,06,24,4.60
2019,04,24,06,25,4.60
2019,04,24,06,26,4.60
2019,04,24,06,27,4.60
2019,04,24,06,28,4.60
2019,04,24,06,29,4.70
2019,04,24,06,30,4.70
2019,04,24,06,31,4.70
2019,04,24,06,32,4.70
2019,04,24,06,33,4.70
2019,04,24,06,34,4.70
2019,04,24,06,35,4.70
2019,04,24,06,36,4.70
2019,04,24,06,37,4.70
2019,04,24,06,38,4.70
2019,04,24,06,39,4.70
2019,04,24,06,40,4.70
2019,04,24,06,41,4.70
2019,04,24,06,42,4.80
2019,04,24,06,43,4.80
2019,04,24,06,44,4.80
2019,04,24,06,45,4.80
2019,04,24,06,46,4.80
2019,04,24,06,47,4.80
2019,04,24,06,48,4.80
2019,04,24,06,49,4.70
2019,04,24,06,50,4.70
2019,04,24,06,51,4.70
2019,04,24,06,52,4.70
2019,04,24,06,53,4.70
2019,04,24,06,54,4.70
2019,04,24,06,55,4.70
2019,04,24,06,56,4.80
2019,04,24,06,57,4.80
2019,04,24,06,58,4.80
2019,04,24,06,59,4.80
2019,04,24,07,00,4.80
2019,04,24,07,01,4.80
2019,04,24,07,02,4.80
2019,04,24,07,03,4.80
2019,04,24,07,04,4.80
2019,04,24,07,05,4.80
2019,04,24,07,06,4.80
2019,04,24,07,07,4.80
2019,04,24,07,08,4.80
2019,04,24,07,09,4.90
2019,04,24,07,10,4.90
2019,04,24,07,11,4.90
2019,04,24,07,12,4.90
2019,04,24,07,13,4.90
2019,04,24,07,14,4.90
2019,04,24,07,15,4.90
2019,04,24,07,16,4.80
2019,04,24,07,17,4.80
2019,04,24,07,18,4.80
2019,04,24,07,19,4.80
2019,04,24,07,20,4.80
2019,04,24,07,21,4.80
2019,04,24,07,22,4.80
2019,04,24,07,23,4.80
2019,04,24,07,24,4.80
2019,04,24,07,25,4.80
2019,04,24,07,26,4.80
2019,04,24,07,27,4.70
2019,04,24,07,28,4.80
2019,04,24,07,29,4.70
2019,04,24,07,30,4.70
2019,04,24,07,31,4.70
2019,04,24,07,32,4.70
2019,04,24,07,33,4.70
2019,04,24,07,34,4.70
2019,04,24,07,35,4.70
2019,04,24,07,36,4.70
2019,04,24,07,37,4.70
2019,04,24,07,38,4.70
2019,04,24,07,39,4.70
2019,04,24,07,40,4.70
2019,04,24,07,41,4.70
2019,04,24,07,42,4.70
2019,04,24,07,43,4.70
2019,04,24,07,44,4.70
2019,04,24,07,45,4.70
2019,04,24,07,46,4.70
2019,04,24,07,47,4.70
2019,04,24,07,48,4.70
2019,04,24,07,49,4.70
2019,04,24,07,50,4.70
2019,04,24,07,51,4.80
2019,04,24,07,52,4.80
2019,04,24,07,53,4.80
2019,04,24,07,54,4.80
2019,04,24,07,55,4.80
2019,04,24,07,56,4.90
2019,04,24,07,57,4.90
2019,04,24,07,58,4.90
2019,04,24,07,59,5.00
2019,04,24,08,00,5.00
2019,04,24,08,01,5.00
2019,04,24,08,02,5.10
2019,04,24,08,03,5.10
2019,04,24,08,04,5.10
2019,04,24,08,05,5.20
2019,04,24,08,06,5.20
2019,04,24,08,07,5.30
2019,04,24,08,08,5.40
2019,04,24,08,09,5.40
2019,04,24,08,10,5.50
2019,04,24,08,11,5.50
2019,04,24,08,12,5.60
2019,04,24,08,13,5.60
2019,04,24,08,14,5.70
2019,04,24,08,15,5.70
2019,04,24,08,16,5.80
2019,04,24,08,17,5.80
2019,04,24,08,18,5.90
2019,04,24,08,19,5.90
2019,04,24,08,20,6.00
2019,04,24,08,21,6.00
2019,04,24,08,22,6.10
2019,04,24,08,23,6.10
2019,04,24,08,24,6.20
2019,04,24,08,25,6.20
2019,04,24,08,26,6.30
2019,04,24,08,27,6.30
2019,04,24,08,28,6.30
2019,04,24,08,29,6.40
2019,04,24,08,30,6.40
2019,04,24,08,31,6.40
2019,04,24,08,32,6.40
2019,04,24,08,33,6.50
2019,04,24,08,34,6.50
2019,04,24,08,35,6.60
2019,04,24,08,36,6.60
2019,04,24,08,37,6.60
2019,04,24,08,38,6.60
2019,04,24,08,39,6.70
2019,04,24,08,40,6.70
2019,04,24,08,41,6.70
2019,04,24,08,42,6.70
2019,04,24,08,43,6.70
2019,04,24,08,44,6.80
2019,04,24,08,45,6.80
2019,04,24,08,46,6.80
2019,04,24,08,47,6.80
2019,04,24,08,48,6.90
2019,04,24,08,49,6.90
2019,04,24,08,50,6.90
2019,04,24,08,51,7.00
2019,04,24,08,52,7.00
2019,04,24,08,53,7.10
2019,04,24,08,54,7.10
2019,04,24,08,55,7.20
2019,04,24,08,56,7.20
2019,04,24,08,57,7.30
2019,04,24,08,58,7.30
2019,04,24,08,59,7.40
2019,04,24,09,00,7.40
2019,04,24,09,01,7.50
2019,04,24,09,02,7.60
2019,04,24,09,03,7.70
2019,04,24,09,04,7.80
2019,04,24,09,05,7.90
2019,04,24,09,06,8.00
2019,04,24,09,07,8.10
2019,04,24,09,08,8.20
2019,04,24,09,09,8.30
2019,04,24,09,10,8.40
2019,04,24,09,11,8.40
2019,04,24,09,12,8.50
2019,04,24,09,13,8.50
2019,04,24,09,14,8.50
2019,04,24,09,15,8.60
2019,04,24,09,16,8.60
2019,04,24,09,17,8.60
2019,04,24,09,18,8.70
2019,04,24,09,19,8.70
2019,04,24,09,20,8.80
2019,04,24,09,21,8.80
2019,04,24,09,22,8.90
2019,04,24,09,23,9.00
2019,04,24,09,24,9.00
2019,04,24,09,25,9.10
2019,04,24,09,26,9.10
2019,04,24,09,27,9.20
2019,04,24,09,28,9.20
2019,04,24,09,29,9.30
2019,04,24,09,30,9.30
2019,04,24,09,31,9.40
2019,04,24,09,32,9.40
2019,04,24,09,33,9.40
2019,04,24,09,34,9.40
2019,04,24,09,35,9.40
2019,04,24,09,36,9.40
2019,04,24,09,37,9.40
2019,04,24,09,38,9.40
2019,04,24,09,39,9.40
2019,04,24,09,40,9.40
2019,04,24,09,41,9.40
2019,04,24,09,42,9.40
2019,04,24,09,43,9.40
2019,04,24,09,44,9.40
2019,04,24,09,45,9.40
2019,04,24,09,46,9.40
2019,04,24,09,47,9.40
2019,04,24,09,48,9.40
2019,04,24,09,49,9.40
2019,04,24,09,50,9.40
2019,04,24,09,51,9.50
2019,04,24,09,52,9.50
2019,04,24,09,53,9.50
2019,04,24,09,54,9.50
2019,04,24,09,55,9.60
2019,04,24,09,56,9.60
2019,04,24,09,57,9.60
2019,04,24,09,58,9.60
2019,04,24,09,59,9.60
2019,04,24,10,00,9.60
2019,04,24,10,01,9.60
2019,04,24,10,02,9.60
2019,04,24,10,03,9.60
2019,04,24,10,04,9.60
2019,04,24,10,05,9.60
2019,04,24,10,06,9.70
2019,04,24,10,07,9.70
2019,04,24,10,08,9.70
2019,04,24,10,09,9.70
2019,04,24,10,10,9.70
2019,04,24,10,11,9.70
2019,04,24,10,12,9.80
2019,04,24,10,13,9.80
2019,04,24,10,14,9.80
2019,04,24,10,15,9.80
2019,04,24,10,16,9.90
2019,04,24,10,17,9.90
2019,04,24,10,18,9.90
2019,04,24,10,19,10.00
2019,04,24,10,20,10.00
2019,04,24,10,21,10.10
2019,04,24,10,22,10.10
2019,04,24,10,23,10.10
2019,04,24,10,24,10.20
2019,04,24,10,25,10.20
2019,04,24,10,26,10.20
2019,04,24,10,27,10.30
2019,04,24,10,28,10.30
2019,04,24,10,29,10.40
2019,04,24,10,30,10.50
2019,04,24,10,31,10.50
2019,04,24,10,32,10.50
2019,04,24,10,33,10.50
2019,04,24,10,34,10.60
2019,04,24,10,35,10.60
2019,04,24,10,36,10.60
2019,04,24,10,37,10.60
2019,04,24,10,38,10.60
2019,04,24,10,39,10.60
2019,04,24,10,40,10.60
2019,04,24,10,41,10.60
2019,04,24,10,42,10.60
2019,04,24,10,43,10.60
2019,04,24,10,44,10.60
2019,04,24,10,45,10.70
2019,04,24,10,46,10.70
2019,04,24,10,47,10.70
2019,04,24,10,48,10.80
2019,04,24,10,49,10.90
2019,04,24,10,50,10.90
2019,04,24,10,51,11.00
2019,04,24,10,52,11.10
2019,04,24,10,53,11.10
2019,04,24,10,54,11.10
2019,04,24,10,55,11.10
2019,04,24,10,56,11.10
2019,04,24,10,57,11.10
2019,04,24,10,58,11.10
2019,04,24,10,59,11.10
2019,04,24,11,00,11.10
2019,04,24,11,01,11.10
2019,04,24,11,02,11.10
2019,04,24,11,03,11.10
2019,04,24,11,04,11.20
2019,04,24,11,05,11.20
2019,04,24,11,06,11.20
2019,04,24,11,07,11.20
2019,04,24,11,08,11.20
2019,04,24,11,09,11.20
2019,04,24,11,10,11.20
2019,04,24,11,11,11.20
2019,04,24,11,12,11.20
2019,04,24,11,13,11.20
2019,04,24,11,14,11.20
2019,04,24,11,15,11.10
2019,04,24,11,16,11.10
2019,04,24,11,17,11.10
2019,04,24,11,18,11.10
2019,04,24,11,19,11.00
2019,04,24,11,20,11.00
2019,04,24,11,21,11.00
2019,04,24,11,22,11.00
2019,04,24,11,23,11.00
2019,04,24,11,24,11.00
2019,04,24,11,25,11.10
2019,04,24,11,26,11.10
2019,04,24,11,27,11.10
2019,04,24,11,28,11.10
2019,04,24,11,29,11.10
2019,04,24,11,30,11.10
2019,04,24,11,31,11.10
2019,04,24,11,32,11.00
2019,04,24,11,33,11.00
2019,04,24,11,34,11.00
2019,04,24,11,35,11.00
2019,04,24,11,36,11.10
2019,04,24,11,37,11.10
2019,04,24,11,38,11.10
2019,04,24,11,39,11.10
2019,04,24,11,40,11.10
2019,04,24,11,41,11.20
2019,04,24,11,42,11.20
2019,04,24,11,43,11.30
2019,04,24,11,44,11.30
2019,04,24,11,45,11.30
2019,04,24,11,46,11.40
2019,04,24,11,47,11.40
2019,04,24,11,48,11.40
2019,04,24,11,49,11.40
2019,04,24,11,50,11.40
2019,04,24,11,51,11.40
2019,04,24,11,52,11.40
2019,04,24,11,53,11.40
2019,04,24,11,54,11.40
2019,04,24,11,55,11.40
2019,04,24,11,56,11.40
2019,04,24,11,57,11.40
2019,04,24,11,58,11.50
2019,04,24,11,59,11.50
2019,04,24,12,00,11.50
2019,04,24,12,01,11.50
2019,04,24,12,02,11.60
2019,04,24,12,03,11.60
2019,04,24,12,04,11.60
2019,04,24,12,05,11.60
2019,04,24,12,06,11.60
2019,04,24,12,07,11.60
2019,04,24,12,08,11.70
2019,04,24,12,09,11.70
2019,04,24,12,10,11.70
2019,04,24,12,11,11.60
2019,04,24,12,12,11.60
2019,04,24,12,13,11.60
2019,04,24,12,14,11.60
2019,04,24,12,15,11.60
2019,04,24,12,16,11.60
2019,04,24,12,17,11.60
2019,04,24,12,18,11.60
2019,04,24,12,19,11.60
2019,04,24,12,20,11.60
2019,04,24,12,21,11.70
2019,04,24,12,22,11.70
2019,04,24,12,23,11.60
2019,04,24,12,24,11.60
2019,04,24,12,25,11.60
2019,04,24,12,26,11.50
2019,04,24,12,27,11.50
2019,04,24,12,28,11.50
2019,04,24,12,29,11.60
2019,04,24,12,30,11.60
2019,04,24,12,31,11.60
2019,04,24,12,32,11.60
2019,04,24,12,33,11.60
2019,04,24,12,34,11.70
2019,04,24,12,35,11.70
2019,04,24,12,36,11.80
2019,04,24,12,37,11.80
2019,04,24,12,38,11.80
2019,04,24,12,39,11.90
2019,04,24,12,40,11.90
2019,04,24,12,41,11.90
2019,04,24,12,42,11.90
2019,04,24,12,43,12.00
2019,04,24,12,44,11.90
2019,04,24,12,45,11.90
2019,04,24,12,46,11.90
2019,04,24,12,47,11.90
2019,04,24,12,48,11.90
2019,04,24,12,49,11.90
2019,04,24,12,50,11.90
2019,04,24,12,51,11.90
2019,04,24,12,52,11.90
2019,04,24,12,53,11.90
2019,04,24,12,54,11.80
2019,04,24,12,55,11.80
2019,04,24,12,56,11.80
2019,04,24,12,57,11.70
2019,04,24,12,58,11.80
2019,04,24,12,59,11.80
2019,04,24,13,00,11.80
2019,04,24,13,01,11.80
2019,04,24,13,02,11.80
2019,04,24,13,03,11.70
2019,04,24,13,04,11.70
2019,04,24,13,05,11.80
2019,04,24,13,06,11.80
2019,04,24,13,07,11.90
2019,04,24,13,08,11.90
2019,04,24,13,09,12.00
2019,04,24,13,10,12.00
2019,04,24,13,11,12.00
2019,04,24,13,12,12.00
2019,04,24,13,13,12.10
2019,04,24,13,14,12.10
2019,04,24,13,15,12.10
2019,04,24,13,16,12.20
2019,04,24,13,17,12.20
2019,04,24,13,18,12.10
2019,04,24,13,19,12.10
2019,04,24,13,20,12.20
2019,04,24,13,21,12.10
2019,04,24,13,22,12.10
2019,04,24,13,23,12.10
2019,04,24,13,24,12.00
2019,04,24,13,25,12.00
2019,04,24,13,26,12.00
2019,04,24,13,27,12.00
2019,04,24,13,28,11.90
2019,04,24,13,29,12.00
2019,04,24,13,30,11.90
2019,04,24,13,31,11.90
2019,04,24,13,32,12.00
2019,04,24,13,33,12.00
2019,04,24,13,34,12.00
2019,04,24,13,35,12.00
2019,04,24,13,36,11.90
2019,04,24,13,37,11.90
2019,04,24,13,38,11.90
2019,04,24,13,39,11.90
2019,04,24,13,40,12.00
2019,04,24,13,41,12.00
2019,04,24,13,42,12.10
2019,04,24,13,43,12.20
2019,04,24,13,44,12.20
2019,04,24,13,45,12.20
2019,04,24,13,46,12.20
2019,04,24,13,47,12.20
2019,04,24,13,48,12.20
2019,04,24,13,49,12.20
2019,04,24,13,50,12.20
2019,04,24,13,51,12.20
2019,04,24,13,52,12.20
2019,04,24,13,53,12.10
2019,04,24,13,54,12.10
2019,04,24,13,55,12.20
2019,04,24,13,56,12.20
2019,04,24,13,57,12.20
2019,04,24,13,58,12.20
2019,04,24,13,59,12.20
2019,04,24,14,00,12.20
2019,04,24,14,01,12.20
2019,04,24,14,02,12.20
2019,04,24,14,03,12.20
2019,04,24,14,04,12.10
2019,04,24,14,05,12.00
2019,04,24,14,06,12.00
2019,04,24,14,07,11.90
2019,04,24,14,08,11.90
2019,04,24,14,09,11.90
2019,04,24,14,10,11.90
2019,04,24,14,11,11.90
2019,04,24,14,12,11.90
2019,04,24,14,13,11.90
2019,04,24,14,14,11.90
2019,04,24,14,15,11.90
2019,04,24,14,16,11.90
2019,04,24,14,17,11.90
2019,04,24,14,18,11.90
2019,04,24,14,19,11.90
2019,04,24,14,20,11.90
2019,04,24,14,21,11.80
2019,04,24,14,22,11.80
2019,04,24,14,23,11.70
2019,04,24,14,24,11.70
2019,04,24,14,25,11.60
2019,04,24,14,26,11.70
2019,04,24,14,27,11.70
2019,04,24,14,28,11.70
2019,04,24,14,29,11.70
2019,04,24,14,30,11.70
2019,04,24,14,31,11.70
2019,04,24,14,32,11.70
2019,04,24,14,33,11.70
2019,04,24,14,34,11.60
2019,04,24,14,35,11.60
2019,04,24,14,36,11.60
2019,04,24,14,37,11.60
2019,04,24,14,38,11.60
2019,04,24,14,39,11.70
2019,04,24,14,40,11.70
2019,04,24,14,41,11.70
2019,04,24,14,42,11.70
2019,04,24,14,43,11.70
2019,04,24,14,44,11.70
2019,04,24,14,45,11.70
2019,04,24,14,46,11.80
2019,04,24,14,47,11.80
2019,04,24,14,48,11.80
2019,04,24,14,49,11.90
2019,04,24,14,50,12.00
2019,04,24,14,51,12.00
2019,04,24,14,52,12.10
2019,04,24,14,53,12.10
2019,04,24,14,54,12.10
2019,04,24,14,55,12.10
2019,04,24,14,56,12.10
2019,04,24,14,57,12.00
2019,04,24,14,58,12.00
2019,04,24,14,59,12.00
2019,04,24,15,00,12.00
2019,04,24,15,01,12.00
2019,04,24,15,02,12.00
2019,04,24,15,03,12.10
2019,04,24,15,04,12.10
2019,04,24,15,05,12.20
2019,04,24,15,06,12.20
2019,04,24,15,07,12.20
2019,04,24,15,08,12.30
2019,04,24,15,09,12.30
2019,04,24,15,10,12.30
2019,04,24,15,11,12.30
2019,04,24,15,12,12.30
2019,04,24,15,13,12.30
2019,04,24,15,14,12.30
2019,04,24,15,15,12.30
2019,04,24,15,16,12.20
2019,04,24,15,17,12.20
2019,04,24,15,18,12.20
2019,04,24,15,19,12.10
2019,04,24,15,20,12.10
2019,04,24,15,21,12.10
2019,04,24,15,22,12.10
2019,04,24,15,23,12.20
2019,04,24,15,24,12.20
2019,04,24,15,25,12.20
2019,04,24,15,26,12.20
2019,04,24,15,27,12.20
2019,04,24,15,28,12.20
2019,04,24,15,29,12.10
2019,04,24,15,30,12.10
2019,04,24,15,31,12.10
2019,04,24,15,32,12.00
2019,04,24,15,33,12.00
2019,04,24,15,34,12.00
2019,04,24,15,35,11.90
2019,04,24,15,36,12.00
2019,04,24,15,37,12.00
2019,04,24,15,38,12.00
2019,04,24,15,39,12.10
2019,04,24,15,40,12.10
2019,04,24,15,41,12.10
2019,04,24,15,42,12.10
2019,04,24,15,43,12.20
2019,04,24,15,44,12.20
2019,04,24,15,45,12.20
2019,04,24,15,46,12.20
2019,04,24,15,47,12.20
2019,04,24,15,48,12.20
2019,04,24,15,49,12.20
2019,04,24,15,50,12.20
2019,04,24,15,51,12.20
2019,04,24,15,52,12.20
2019,04,24,15,53,12.20
2019,04,24,15,54,12.20
2019,04,24,15,55,12.20
2019,04,24,15,56,12.10
2019,04,24,15,57,12.10
2019,04,24,15,58,12.00
2019,04,24,15,59,12.00
2019,04,24,16,00,12.00
2019,04,24,16,01,12.00
2019,04,24,16,02,11.90
2019,04,24,16,03,11.90
2019,04,24,16,04,11.90
2019,04,24,16,05,12.00
2019,04,24,16,06,12.00
2019,04,24,16,07,12.10
2019,04,24,16,08,12.10
2019,04,24,16,09,12.10
2019,04,24,16,10,12.10
2019,04,24,16,11,12.10
2019,04,24,16,12,12.10
2019,04,24,16,13,12.20
2019,04,24,16,14,12.20
2019,04,24,16,15,12.20
2019,04,24,16,16,12.20
2019,04,24,16,17,12.20
2019,04,24,16,18,12.20
2019,04,24,16,19,12.20
2019,04,24,16,20,12.20
2019,04,24,16,21,12.20
2019,04,24,16,22,12.20
2019,04,24,16,23,12.30
2019,04,24,16,24,12.30
2019,04,24,16,25,12.30
2019,04,24,16,26,12.40
2019,04,24,16,27,12.40
2019,04,24,16,28,12.40
2019,04,24,16,29,12.40
2019,04,24,16,30,12.40
2019,04,24,16,31,12.40
2019,04,24,16,32,12.40
2019,04,24,16,33,12.40
2019,04,24,16,34,12.30
2019,04,24,16,35,12.30
2019,04,24,16,36,12.30
2019,04,24,16,37,12.30
2019,04,24,16,38,12.30
2019,04,24,16,39,12.30
2019,04,24,16,40,12.30
2019,04,24,16,41,12.30
2019,04,24,16,42,12.30
2019,04,24,16,43,12.30
2019,04,24,16,44,12.30
2019,04,24,16,45,12.30
2019,04,24,16,46,12.30
2019,04,24,16,47,12.30
2019,04,24,16,48,12.30
2019,04,24,16,49,12.30
2019,04,24,16,50,12.30
2019,04,24,16,51,12.30
2019,04,24,16,52,12.30
2019,04,24,16,53,12.30
2019,04,24,16,54,12.40
2019,04,24,16,55,12.40
2019,04,24,16,56,12.40
2019,04,24,16,57,12.30
2019,04,24,16,58,12.30
2019,04,24,16,59,12.30
2019,04,24,17,00,12.30
2019,04,24,17,01,12.30
2019,04,24,17,02,12.30
2019,04,24,17,03,12.30
2019,04,24,17,04,12.30
2019,04,24,17,05,12.20
2019,04,24,17,06,12.20
2019,04,24,17,07,12.20
2019,04,24,17,08,12.20
2019,04,24,17,09,12.20
2019,04,24,17,10,12.20
2019,04,24,17,11,12.20
2019,04,24,17,12,12.20
2019,04,24,17,13,12.20
2019,04,24,17,14,12.20
2019,04,24,17,15,12.20
2019,04,24,17,16,12.20
2019,04,24,17,17,12.20
2019,04,24,17,18,12.20
2019,04,24,17,19,12.20
2019,04,24,17,20,12.20
2019,04,24,17,21,12.20
2019,04,24,17,22,12.20
2019,04,24,17,23,12.10
2019,04,24,17,24,12.10
2019,04,24,17,25,12.10
2019,04,24,17,26,12.10
2019,04,24,17,27,12.10
2019,04,24,17,28,12.10
2019,04,24,17,29,12.10
2019,04,24,17,30,12.10
2019,04,24,17,31,12.10
2019,04,24,17,32,12.10
2019,04,24,17,33,12.10
2019,04,24,17,34,12.10
2019,04,24,17,35,12.20
2019,04,24,17,36,12.20
2019,04,24,17,37,12.20
2019,04,24,17,38,12.20
2019,04,24,17,39,12.20
2019,04,24,17,40,12.20
2019,04,24,17,41,12.20
2019,04,24,17,42,12.20
2019,04,24,17,43,12.20
2019,04,24,17,44,12.20
2019,04,24,17,45,12.20
2019,04,24,17,46,12.20